Вернуться в каталог

STARLINK-32488

АктивенСвязьVLEO
NORAD 62125·PAYLOAD·🇺🇸 United States

Запущен Nov 27, 2024 с Cape Canaveral Space Force Station

Loading…

Ближайшие Пролёты (ближайшие 24 часа)

TLE

СвежийSource: CelesTrak SupGP

Эпоха: Sep 14, 2026, 14:03 UTC

1 62125C 24222M   26257.58590278  .00042540  00000+0  15410-2 0  2578
2 62125  42.9996 149.7421 0001410 263.9753 114.4368 15.27553019    12

Отслеживайте STARLINK-32488 в реальном времени с AllMySat

Download on the App Store